WJA873 CYHZ-CYXE

Flight info

Callsign WJA873
Flight time 4h 28m
Altitude 34000
Route DUSEN DCT ITPAX DCT MIILS DCT CEFOU DCT MOFAT DCT MT DCT PEMLU DCT 52N090W/N0457F360 DCT DALDE DCT PENPI DUNEM7
Aircraft B738/M-SDE2E3FGHIRWXY/LB1

Departure

Time 2026-05-05 00:58
Airport Halifax / Stanfield International Airport (CYHZ)

Arrival

Time 2026-05-05 05:26
Airport Saskatoon John G. Diefenbaker International Airport (CYXE)
Time Latitude Longitude Altitude Speed Heading
2026-05-05 00:14 44.88721 -63.51412 456 ft 0 kts 292°
2026-05-05 00:49 44.88717 -63.51398 456 ft 3 kts 288°
2026-05-05 00:49 44.88712 -63.51371 456 ft 3 kts 275°
2026-05-05 00:49 44.88711 -63.51342 456 ft 3 kts 272°
2026-05-05 00:49 44.88709 -63.51316 452 ft 3 kts 280°
2026-05-05 00:50 44.88704 -63.51289 454 ft 3 kts 301°
2026-05-05 00:50 44.88692 -63.51269 452 ft 3 kts 330°
2026-05-05 00:50 44.88677 -63.51260 455 ft 1 kts 349°
2026-05-05 00:50 44.88671 -63.51258 455 ft 0 kts 349°
2026-05-05 00:53 44.88674 -63.51255 455 ft 1 kts 28°
2026-05-05 00:53 44.88689 -63.51210 456 ft 10 kts 77°
2026-05-05 00:53 44.88707 -63.51083 456 ft 16 kts 80°
2026-05-05 00:54 44.88742 -63.50917 455 ft 20 kts 50°
2026-05-05 00:54 44.88850 -63.50803 455 ft 19 kts 36°
2026-05-05 00:54 44.88953 -63.50697 456 ft 14 kts 35°
2026-05-05 00:54 44.89003 -63.50599 455 ft 11 kts 96°
2026-05-05 00:55 44.89003 -63.50592 455 ft 0 kts 100°
2026-05-05 00:55 44.88996 -63.50570 454 ft 7 kts 119°
2026-05-05 00:55 44.88937 -63.50482 453 ft 15 kts 121°
2026-05-05 00:55 44.88881 -63.50438 456 ft 9 kts 201°
2026-05-05 00:56 44.88870 -63.50450 456 ft 1 kts 220°
2026-05-05 00:56 44.88867 -63.50454 456 ft 1 kts 220°
2026-05-05 00:56 44.88863 -63.50458 456 ft 1 kts 220°
2026-05-05 00:56 44.88847 -63.50478 456 ft 12 kts 220°
2026-05-05 00:57 44.88588 -63.50735 458 ft 79 kts 215°
2026-05-05 00:57 44.87958 -63.51355 458 ft 139 kts 215°
2026-05-05 00:57 44.87055 -63.52252 668 ft 171 kts 217°
2026-05-05 00:57 44.85973 -63.53256 1002 ft 199 kts 214°
2026-05-05 00:58 44.84803 -63.54371 1520 ft 207 kts 225°
2026-05-05 00:58 44.83754 -63.55751 2340 ft 199 kts 232°
2026-05-05 00:58 44.82822 -63.57233 2809 ft 210 kts 238°
2026-05-05 00:58 44.82275 -63.59136 3206 ft 214 kts 269°
2026-05-05 00:59 44.82362 -63.60506 3727 ft 214 kts 279°
2026-05-05 00:59 44.82936 -63.62493 4456 ft 226 kts 297°
2026-05-05 00:59 44.84177 -63.64874 5473 ft 230 kts 300°
2026-05-05 00:59 44.84833 -63.66081 5777 ft 230 kts 300°
2026-05-05 01:00 44.85815 -63.67883 5961 ft 233 kts 300°
2026-05-05 01:00 44.86796 -63.69685 5996 ft 232 kts 300°
2026-05-05 01:00 44.87781 -63.71497 5996 ft 233 kts 300°
2026-05-05 01:00 44.88769 -63.73318 6034 ft 235 kts 300°
2026-05-05 01:01 44.89755 -63.75141 6551 ft 237 kts 300°
2026-05-05 01:01 44.90752 -63.76985 7369 ft 237 kts 301°
2026-05-05 01:01 44.91672 -63.78692 8003 ft 239 kts 301°
2026-05-05 01:01 44.92594 -63.80408 8667 ft 241 kts 301°
2026-05-05 01:02 44.93608 -63.82294 9410 ft 242 kts 300°
2026-05-05 01:02 44.94630 -63.84198 10103 ft 243 kts 300°
2026-05-05 01:02 44.95678 -63.86159 10419 ft 261 kts 301°
2026-05-05 01:02 44.96805 -63.88274 10589 ft 281 kts 301°
2026-05-05 01:03 44.98029 -63.90565 10755 ft 300 kts 302°
2026-05-05 01:03 44.99299 -63.92936 11135 ft 311 kts 302°
2026-05-05 01:03 45.00632 -63.95411 11776 ft 315 kts 302°
2026-05-05 01:03 45.01942 -63.97853 12486 ft 316 kts 302°
2026-05-05 01:04 45.03272 -64.00342 13155 ft 318 kts 302°
2026-05-05 01:04 45.05961 -64.05383 14414 ft 322 kts 302°
2026-05-05 01:04 45.07306 -64.07907 15081 ft 322 kts 301°
2026-05-05 01:05 45.08655 -64.10441 15721 ft 323 kts 301°
2026-05-05 01:05 45.10008 -64.12988 16315 ft 324 kts 301°
2026-05-05 01:05 45.11365 -64.15545 16956 ft 325 kts 301°
2026-05-05 01:05 45.12724 -64.18111 17596 ft 326 kts 301°
2026-05-05 01:06 45.14025 -64.20737 18219 ft 325 kts 298°
2026-05-05 01:06 45.15247 -64.23430 18794 ft 324 kts 298°
2026-05-05 01:06 45.16441 -64.26133 19305 ft 325 kts 297°
2026-05-05 01:06 45.17644 -64.28873 19801 ft 327 kts 298°
2026-05-05 01:07 45.18849 -64.31616 20309 ft 328 kts 298°
2026-05-05 01:07 45.20061 -64.34366 20819 ft 329 kts 298°
2026-05-05 01:07 45.21280 -64.37125 21312 ft 331 kts 298°
2026-05-05 01:07 45.22508 -64.39901 21764 ft 333 kts 299°
2026-05-05 01:08 45.23740 -64.42686 22288 ft 334 kts 299°
2026-05-05 01:08 45.24976 -64.45477 22790 ft 334 kts 299°
2026-05-05 01:08 45.26214 -64.48277 23238 ft 336 kts 299°
2026-05-05 01:08 45.27446 -64.51062 23638 ft 337 kts 300°
2026-05-05 01:09 45.28694 -64.53886 23983 ft 339 kts 300°
2026-05-05 01:09 45.29952 -64.56738 24303 ft 341 kts 300°
2026-05-05 01:09 45.31219 -64.59610 24611 ft 344 kts 300°
2026-05-05 01:09 45.32494 -64.62504 24943 ft 346 kts 300°
2026-05-05 01:10 45.33786 -64.65446 25103 ft 353 kts 300°
2026-05-05 01:10 45.35098 -64.68432 25335 ft 357 kts 300°
2026-05-05 01:10 45.36402 -64.71398 25653 ft 359 kts 300°
2026-05-05 01:10 45.37727 -64.74415 25972 ft 360 kts 300°
2026-05-05 01:11 45.39057 -64.77447 26254 ft 363 kts 300°
2026-05-05 01:11 45.40398 -64.80508 26547 ft 364 kts 300°
2026-05-05 01:11 45.41735 -64.83563 26890 ft 365 kts 300°
2026-05-05 01:11 45.43084 -64.86649 27188 ft 367 kts 300°
2026-05-05 01:12 45.44439 -64.89757 27450 ft 369 kts 300°
2026-05-05 01:12 45.45784 -64.92840 27684 ft 371 kts 300°
2026-05-05 01:12 45.47150 -64.95978 27931 ft 374 kts 300°
2026-05-05 01:12 45.48523 -64.99134 28249 ft 374 kts 300°
2026-05-05 01:13 45.49890 -65.02280 28640 ft 373 kts 300°
2026-05-05 01:13 45.51252 -65.05419 29012 ft 372 kts 300°
2026-05-05 01:13 45.52611 -65.08555 29320 ft 372 kts 300°
2026-05-05 01:13 45.53975 -65.11696 29675 ft 371 kts 301°
2026-05-05 01:14 45.55327 -65.14812 30104 ft 368 kts 301°
2026-05-05 01:14 45.56672 -65.17930 30249 ft 371 kts 300°
2026-05-05 01:14 45.58031 -65.21086 30372 ft 374 kts 300°
2026-05-05 01:14 45.59395 -65.24257 30598 ft 375 kts 300°
2026-05-05 01:15 45.60764 -65.27439 30814 ft 376 kts 300°
2026-05-05 01:15 45.62119 -65.30591 30986 ft 378 kts 300°
2026-05-05 01:15 45.63494 -65.33792 31168 ft 380 kts 300°
2026-05-05 01:15 45.64874 -65.37008 31364 ft 381 kts 300°
2026-05-05 01:16 45.66263 -65.40247 31549 ft 383 kts 300°
2026-05-05 01:16 45.67658 -65.43507 31729 ft 384 kts 300°
2026-05-05 01:16 45.69057 -65.46777 31906 ft 386 kts 300°
2026-05-05 01:16 45.70458 -65.50056 32072 ft 387 kts 299°
2026-05-05 01:17 45.71872 -65.53370 32255 ft 389 kts 299°
2026-05-05 01:17 45.73265 -65.56639 32436 ft 390 kts 299°
2026-05-05 01:17 45.74678 -65.59957 32623 ft 391 kts 299°
2026-05-05 01:17 45.76096 -65.63293 32792 ft 393 kts 299°
2026-05-05 01:18 45.77517 -65.66639 32910 ft 395 kts 299°
2026-05-05 01:18 45.78954 -65.70027 33051 ft 397 kts 298°
2026-05-05 01:18 45.81844 -65.76855 33284 ft 402 kts 299°
2026-05-05 01:19 45.83297 -65.80290 33461 ft 403 kts 299°
2026-05-05 01:19 45.84749 -65.83726 33625 ft 404 kts 299°
2026-05-05 01:19 45.86208 -65.87186 33758 ft 405 kts 298°
2026-05-05 01:19 45.87670 -65.90658 33775 ft 408 kts 298°
2026-05-05 01:20 45.90583 -65.97583 33784 ft 406 kts 298°
2026-05-05 01:20 45.93487 -66.04501 33802 ft 403 kts 299°
2026-05-05 01:21 45.96369 -66.11384 33788 ft 401 kts 299°
2026-05-05 01:21 45.99231 -66.18237 33793 ft 398 kts 299°
2026-05-05 01:22 46.02076 -66.24994 33797 ft 397 kts 299°
2026-05-05 01:22 46.04935 -66.31775 33801 ft 396 kts 299°
2026-05-05 01:23 46.07793 -66.38564 33798 ft 396 kts 300°
2026-05-05 01:23 46.10646 -66.45368 33797 ft 396 kts 300°
2026-05-05 01:24 46.13476 -66.52136 33794 ft 396 kts 300°
2026-05-05 01:24 46.16322 -66.58958 33781 ft 397 kts 300°
2026-05-05 01:25 46.19168 -66.65794 33776 ft 397 kts 300°
2026-05-05 01:25 46.22003 -66.72620 33771 ft 396 kts 300°
2026-05-05 01:26 46.24807 -66.79392 33792 ft 395 kts 300°
2026-05-05 01:26 46.27630 -66.86225 33788 ft 395 kts 300°
2026-05-05 01:27 46.30449 -66.93062 33785 ft 395 kts 300°
2026-05-05 01:27 46.33248 -66.99869 33771 ft 396 kts 300°
2026-05-05 01:28 46.36060 -67.06724 33786 ft 396 kts 300°
2026-05-05 01:28 46.38867 -67.13586 33788 ft 396 kts 300°
2026-05-05 01:29 46.41679 -67.20476 33787 ft 397 kts 300°
2026-05-05 01:29 46.44492 -67.27386 33783 ft 398 kts 300°
2026-05-05 01:30 46.47299 -67.34298 33784 ft 398 kts 300°
2026-05-05 01:30 46.50083 -67.41171 33779 ft 396 kts 300°
2026-05-05 01:31 46.52867 -67.48060 33774 ft 394 kts 300°
2026-05-05 01:31 46.55631 -67.54918 33774 ft 392 kts 300°
2026-05-05 01:32 46.58382 -67.61761 33778 ft 390 kts 300°
2026-05-05 01:32 46.61108 -67.68557 33774 ft 387 kts 300°
2026-05-05 01:33 46.63808 -67.75304 33770 ft 384 kts 300°
2026-05-05 01:33 46.66466 -67.81962 33774 ft 381 kts 300°
2026-05-05 01:34 46.69113 -67.88610 33783 ft 378 kts 300°
2026-05-05 01:34 46.71759 -67.95269 33795 ft 376 kts 300°
2026-05-05 01:35 46.74312 -68.01701 33786 ft 374 kts 300°
2026-05-05 01:35 46.76784 -68.07956 33782 ft 373 kts 300°
2026-05-05 01:36 46.79264 -68.14107 33768 ft 372 kts 301°
2026-05-05 01:36 46.81914 -68.20500 33769 ft 372 kts 301°
2026-05-05 01:37 46.84596 -68.26968 33777 ft 373 kts 301°
2026-05-05 01:37 46.87275 -68.33459 33758 ft 373 kts 301°
2026-05-05 01:38 46.89954 -68.39974 33762 ft 374 kts 301°
2026-05-05 01:38 46.92611 -68.46454 33751 ft 374 kts 301°
2026-05-05 01:39 46.95288 -68.53001 33754 ft 375 kts 301°
2026-05-05 01:39 46.97970 -68.59576 33757 ft 376 kts 301°
2026-05-05 01:40 47.00648 -68.66157 33747 ft 376 kts 301°
2026-05-05 01:40 47.03326 -68.72753 33754 ft 376 kts 301°
2026-05-05 01:41 47.05996 -68.79345 33759 ft 376 kts 301°
2026-05-05 01:41 47.08662 -68.85944 33758 ft 376 kts 301°
2026-05-05 01:42 47.11308 -68.92510 33770 ft 376 kts 301°
2026-05-05 01:42 47.13965 -68.99116 33752 ft 376 kts 301°
2026-05-05 01:43 47.16621 -69.05740 33748 ft 376 kts 301°
2026-05-05 01:43 47.19274 -69.12369 33755 ft 376 kts 301°
2026-05-05 01:44 47.21920 -69.18999 33756 ft 376 kts 301°
2026-05-05 01:44 47.24565 -69.25643 33751 ft 376 kts 301°
2026-05-05 01:45 47.27188 -69.32245 33736 ft 376 kts 301°
2026-05-05 01:45 47.29828 -69.38909 33742 ft 376 kts 301°
2026-05-05 01:46 47.32463 -69.45575 33744 ft 376 kts 301°
2026-05-05 01:46 47.35097 -69.52256 33745 ft 377 kts 301°
2026-05-05 01:47 47.37714 -69.58908 33745 ft 377 kts 301°
2026-05-05 01:47 47.40349 -69.65624 33725 ft 378 kts 300°
2026-05-05 01:48 47.42536 -69.71210 33735 ft 378 kts 300°
2026-05-05 01:48 47.45162 -69.77935 33728 ft 378 kts 300°
2026-05-05 01:49 47.47788 -69.84675 33732 ft 378 kts 300°
2026-05-05 01:49 47.50409 -69.91421 33728 ft 378 kts 300°
2026-05-05 01:50 47.53031 -69.98184 33729 ft 378 kts 300°
2026-05-05 01:50 47.55629 -70.04901 33736 ft 378 kts 300°
2026-05-05 01:51 47.58234 -70.11658 33718 ft 378 kts 300°
2026-05-05 01:51 47.60836 -70.18420 33725 ft 377 kts 300°
2026-05-05 01:52 47.63428 -70.25174 33732 ft 377 kts 300°
2026-05-05 01:52 47.66019 -70.31944 33734 ft 377 kts 300°
2026-05-05 01:53 47.68603 -70.38715 33735 ft 376 kts 298°
2026-05-05 01:53 47.71177 -70.45471 33739 ft 376 kts 298°
2026-05-05 01:54 47.73750 -70.52243 33730 ft 375 kts 298°
2026-05-05 01:54 47.76282 -70.58937 33745 ft 374 kts 298°
2026-05-05 01:55 47.78833 -70.65676 33734 ft 374 kts 298°
2026-05-05 01:55 47.81378 -70.72424 33738 ft 373 kts 297°
2026-05-05 01:56 47.83914 -70.79167 33741 ft 374 kts 297°
2026-05-05 01:56 47.86452 -70.85923 33756 ft 373 kts 297°
2026-05-05 01:57 47.88982 -70.92683 33742 ft 374 kts 297°
2026-05-05 01:57 47.91516 -70.99472 33740 ft 375 kts 297°
2026-05-05 01:58 47.94030 -71.06211 33732 ft 374 kts 297°
2026-05-05 01:58 47.96562 -71.13032 33717 ft 376 kts 297°
2026-05-05 01:59 47.99101 -71.19881 33722 ft 377 kts 297°
2026-05-05 01:59 48.01703 -71.26695 33708 ft 380 kts 301°
2026-05-05 02:00 48.05085 -71.32798 33710 ft 382 kts 308°
2026-05-05 02:00 48.08583 -71.38736 33712 ft 382 kts 307°
2026-05-05 02:01 48.12090 -71.44722 33701 ft 383 kts 307°
2026-05-05 02:01 48.15589 -71.50726 33707 ft 382 kts 307°
2026-05-05 02:02 48.19060 -71.56699 33716 ft 381 kts 307°
2026-05-05 02:02 48.22535 -71.62696 33691 ft 381 kts 307°
2026-05-05 02:03 48.26005 -71.68698 33692 ft 380 kts 307°
2026-05-05 02:03 48.29473 -71.74709 33696 ft 380 kts 306°
2026-05-05 02:04 48.32936 -71.80728 33699 ft 381 kts 306°
2026-05-05 02:04 48.36401 -71.86762 33689 ft 382 kts 306°
2026-05-05 02:05 48.39875 -71.92825 33699 ft 382 kts 306°
2026-05-05 02:05 48.43345 -71.98895 33689 ft 383 kts 306°
2026-05-05 02:06 48.46817 -72.04983 33690 ft 383 kts 306°
2026-05-05 02:06 48.50293 -72.11091 33682 ft 384 kts 306°
2026-05-05 02:07 48.53743 -72.17168 33687 ft 384 kts 306°
2026-05-05 02:07 48.57211 -72.23290 33694 ft 384 kts 306°
2026-05-05 02:08 48.60685 -72.29437 33705 ft 384 kts 306°
2026-05-05 02:08 48.64156 -72.35594 33698 ft 385 kts 306°
2026-05-05 02:09 48.67632 -72.41773 33689 ft 385 kts 306°
2026-05-05 02:09 48.71105 -72.47961 33683 ft 386 kts 306°
2026-05-05 02:10 48.74556 -72.54125 33684 ft 386 kts 306°
2026-05-05 02:10 48.78030 -72.60345 33676 ft 386 kts 306°
2026-05-05 02:11 48.81508 -72.66586 33673 ft 387 kts 305°
2026-05-05 02:11 48.84977 -72.72824 33665 ft 387 kts 305°
2026-05-05 02:12 48.90162 -72.82178 33674 ft 387 kts 305°
2026-05-05 02:13 48.93633 -72.88459 33685 ft 388 kts 305°
2026-05-05 02:13 48.97109 -72.94764 33670 ft 389 kts 305°
2026-05-05 02:14 49.00582 -73.01078 33667 ft 389 kts 304°
2026-05-05 02:14 49.04062 -73.07416 33675 ft 390 kts 304°
2026-05-05 02:15 49.07542 -73.13774 33666 ft 390 kts 304°
2026-05-05 02:15 49.11018 -73.20138 33668 ft 390 kts 304°
2026-05-05 02:16 49.14471 -73.26477 33662 ft 391 kts 304°
2026-05-05 02:16 49.17946 -73.32871 33665 ft 391 kts 304°
2026-05-05 02:17 49.21419 -73.39275 33665 ft 391 kts 303°
2026-05-05 02:17 49.24897 -73.45705 33669 ft 392 kts 303°
2026-05-05 02:18 49.28385 -73.52172 33646 ft 393 kts 303°
2026-05-05 02:18 49.31867 -73.58641 33649 ft 394 kts 303°
2026-05-05 02:19 49.35341 -73.65111 33650 ft 395 kts 303°
2026-05-05 02:19 49.38833 -73.71630 33647 ft 396 kts 303°
2026-05-05 02:20 49.42334 -73.78182 33636 ft 397 kts 303°
2026-05-05 02:20 49.45835 -73.84750 33638 ft 398 kts 303°
2026-05-05 02:21 49.49337 -73.91337 33634 ft 398 kts 303°
2026-05-05 02:21 49.52840 -73.97941 33629 ft 398 kts 303°
2026-05-05 02:22 49.56355 -74.04586 33641 ft 400 kts 303°
2026-05-05 02:22 49.59851 -74.11211 33630 ft 401 kts 302°
2026-05-05 02:23 49.63403 -74.17960 33606 ft 404 kts 302°
2026-05-05 02:23 49.66924 -74.24664 33599 ft 406 kts 302°
2026-05-05 02:24 49.70479 -74.31448 33585 ft 407 kts 302°
2026-05-05 02:24 49.74054 -74.38284 33575 ft 409 kts 302°
2026-05-05 02:25 49.77622 -74.45130 33569 ft 409 kts 302°
2026-05-05 02:25 49.80660 -74.52375 33577 ft 400 kts 288°
2026-05-05 02:26 49.82590 -74.60191 33580 ft 399 kts 285°
2026-05-05 02:26 49.84529 -74.68248 33575 ft 400 kts 286°
2026-05-05 02:27 49.86478 -74.76280 33575 ft 400 kts 286°
2026-05-05 02:27 49.88443 -74.84356 33581 ft 401 kts 285°
2026-05-05 02:28 49.90423 -74.92496 33584 ft 404 kts 285°
2026-05-05 02:28 49.92384 -75.00579 33574 ft 406 kts 285°
2026-05-05 02:29 49.94290 -75.08462 33576 ft 409 kts 285°
2026-05-05 02:29 49.96290 -75.16765 33556 ft 411 kts 285°
2026-05-05 02:30 49.98272 -75.25024 33558 ft 413 kts 285°
2026-05-05 02:30 50.00242 -75.33268 33553 ft 415 kts 285°
2026-05-05 02:31 50.02242 -75.41666 33552 ft 416 kts 285°
2026-05-05 02:31 50.04213 -75.49975 33522 ft 416 kts 285°
2026-05-05 02:32 50.06205 -75.58405 33526 ft 416 kts 285°
2026-05-05 02:32 50.08199 -75.66873 33515 ft 415 kts 285°
2026-05-05 02:33 50.10175 -75.75302 33511 ft 414 kts 285°
2026-05-05 02:33 50.12142 -75.83727 33504 ft 413 kts 285°
2026-05-05 02:34 50.14073 -75.92030 33504 ft 412 kts 285°
2026-05-05 02:34 50.16016 -76.00417 33508 ft 411 kts 285°
2026-05-05 02:35 50.17929 -76.08704 33508 ft 410 kts 285°
2026-05-05 02:35 50.19854 -76.17083 33495 ft 411 kts 285°
2026-05-05 02:36 50.21761 -76.25412 33501 ft 411 kts 285°
2026-05-05 02:36 50.23351 -76.32383 33491 ft 412 kts 285°
2026-05-05 02:37 50.25267 -76.40812 33493 ft 414 kts 285°
2026-05-05 02:37 50.27182 -76.49268 33487 ft 415 kts 285°
2026-05-05 02:38 50.29098 -76.57766 33491 ft 417 kts 285°
2026-05-05 02:38 50.31021 -76.66329 33479 ft 418 kts 285°
2026-05-05 02:39 50.32938 -76.74895 33477 ft 420 kts 285°
2026-05-05 02:39 50.34865 -76.83546 33461 ft 420 kts 285°
2026-05-05 02:40 50.36786 -76.92201 33462 ft 421 kts 284°
2026-05-05 02:40 50.38677 -77.00760 33464 ft 421 kts 284°
2026-05-05 02:41 50.40584 -77.09432 33457 ft 422 kts 284°
2026-05-05 02:41 50.42488 -77.18119 33444 ft 422 kts 284°
2026-05-05 02:42 50.44359 -77.26696 33447 ft 421 kts 284°
2026-05-05 02:42 50.46241 -77.35359 33442 ft 421 kts 284°
2026-05-05 02:43 50.48106 -77.43980 33443 ft 421 kts 284°
2026-05-05 02:43 50.49968 -77.52622 33433 ft 421 kts 284°
2026-05-05 02:44 50.51831 -77.61304 33432 ft 421 kts 284°
2026-05-05 02:44 50.53692 -77.70017 33422 ft 421 kts 284°
2026-05-05 02:45 50.55544 -77.78723 33427 ft 421 kts 284°
2026-05-05 02:45 50.57385 -77.87417 33419 ft 422 kts 283°
2026-05-05 02:46 50.59224 -77.96136 33415 ft 422 kts 283°
2026-05-05 02:46 50.61055 -78.04856 33409 ft 422 kts 283°
2026-05-05 02:47 50.62873 -78.13548 33420 ft 423 kts 283°
2026-05-05 02:47 50.64701 -78.22332 33397 ft 423 kts 283°
2026-05-05 02:48 50.66529 -78.31150 33408 ft 424 kts 283°
2026-05-05 02:48 50.68354 -78.39998 33398 ft 425 kts 283°
2026-05-05 02:49 50.70167 -78.48824 33397 ft 425 kts 283°
2026-05-05 02:49 50.71970 -78.57637 33384 ft 425 kts 283°
2026-05-05 02:50 50.73774 -78.66498 33381 ft 425 kts 283°
2026-05-05 02:50 50.75572 -78.75369 33382 ft 426 kts 283°
2026-05-05 02:51 50.77353 -78.84197 33381 ft 426 kts 283°
2026-05-05 02:51 50.79138 -78.93084 33371 ft 426 kts 283°
2026-05-05 02:52 50.80924 -79.02015 33372 ft 426 kts 283°
2026-05-05 02:52 50.82693 -79.10900 33368 ft 427 kts 283°
2026-05-05 02:53 50.84470 -79.19871 33366 ft 428 kts 283°
2026-05-05 02:53 50.86243 -79.28860 33362 ft 430 kts 283°
2026-05-05 02:54 50.88018 -79.37906 33360 ft 432 kts 283°
2026-05-05 02:54 50.89793 -79.46988 33351 ft 434 kts 283°
2026-05-05 02:55 50.91567 -79.56105 33347 ft 436 kts 283°
2026-05-05 02:55 50.93323 -79.65175 33349 ft 438 kts 283°
2026-05-05 02:56 50.95111 -79.74448 33346 ft 439 kts 283°
2026-05-05 02:56 50.96859 -79.83554 33335 ft 439 kts 282°
2026-05-05 02:57 50.98626 -79.92794 33338 ft 439 kts 282°
2026-05-05 02:57 51.00400 -80.01920 33324 ft 440 kts 285°
2026-05-05 02:58 51.02573 -80.10856 33331 ft 441 kts 288°
2026-05-05 02:58 51.04898 -80.19817 33320 ft 440 kts 288°
2026-05-05 02:59 51.07193 -80.28779 33319 ft 439 kts 287°
2026-05-05 02:59 51.09458 -80.37797 33323 ft 438 kts 287°
2026-05-05 03:00 51.11689 -80.46777 33328 ft 437 kts 287°
2026-05-05 03:00 51.13905 -80.55751 33336 ft 437 kts 287°
2026-05-05 03:01 51.16109 -80.64709 33312 ft 438 kts 287°
2026-05-05 03:01 51.18317 -80.73717 33300 ft 438 kts 287°
2026-05-05 03:02 51.20521 -80.82741 33323 ft 439 kts 287°
2026-05-05 03:02 51.22723 -80.91797 33299 ft 440 kts 287°
2026-05-05 03:03 51.24937 -81.00942 33319 ft 441 kts 287°
2026-05-05 03:03 51.27145 -81.10097 33309 ft 443 kts 287°
2026-05-05 03:04 51.29335 -81.19216 33302 ft 445 kts 287°
2026-05-05 03:04 51.31532 -81.28400 33295 ft 446 kts 287°
2026-05-05 03:05 51.33737 -81.37659 33321 ft 447 kts 287°
2026-05-05 03:05 51.35936 -81.46935 33299 ft 448 kts 287°
2026-05-05 03:06 51.38131 -81.56232 33290 ft 448 kts 287°
2026-05-05 03:06 51.40322 -81.65550 33287 ft 448 kts 287°
2026-05-05 03:07 51.42468 -81.74717 33281 ft 448 kts 287°
2026-05-05 03:07 51.44627 -81.83981 33306 ft 447 kts 287°
2026-05-05 03:08 51.46785 -81.93278 33280 ft 447 kts 287°
2026-05-05 03:08 51.48948 -82.02640 33285 ft 447 kts 287°
2026-05-05 03:09 51.51094 -82.11970 33273 ft 447 kts 287°
2026-05-05 03:09 51.53234 -82.21314 33270 ft 446 kts 287°
2026-05-05 03:10 51.55364 -82.30653 33279 ft 446 kts 287°
2026-05-05 03:10 51.57488 -82.40013 33261 ft 447 kts 287°
2026-05-05 03:11 51.59583 -82.49285 33255 ft 448 kts 287°
2026-05-05 03:11 51.61680 -82.58607 33252 ft 449 kts 287°
2026-05-05 03:12 51.63780 -82.67980 33253 ft 450 kts 287°
2026-05-05 03:12 51.65893 -82.77456 33265 ft 451 kts 287°
2026-05-05 03:13 51.67992 -82.86911 33254 ft 452 kts 287°
2026-05-05 03:13 51.70091 -82.96407 33243 ft 452 kts 287°
2026-05-05 03:14 51.72192 -83.05958 33243 ft 453 kts 287°
2026-05-05 03:14 51.74290 -83.15539 33240 ft 453 kts 287°
2026-05-05 03:15 51.76377 -83.25115 33246 ft 453 kts 287°
2026-05-05 03:15 51.78451 -83.34678 33237 ft 452 kts 287°
2026-05-05 03:16 51.80509 -83.44208 33230 ft 451 kts 287°
2026-05-05 03:16 51.82558 -83.53742 33223 ft 449 kts 286°
2026-05-05 03:17 51.84586 -83.63224 33221 ft 447 kts 286°
2026-05-05 03:17 51.86611 -83.72735 33229 ft 446 kts 286°
2026-05-05 03:18 51.88616 -83.82194 33225 ft 445 kts 286°
2026-05-05 03:18 51.90611 -83.91656 33225 ft 444 kts 286°
2026-05-05 03:19 51.93586 -84.05845 33224 ft 444 kts 286°
2026-05-05 03:19 51.95564 -84.15335 33248 ft 445 kts 286°
2026-05-05 03:20 51.97525 -84.24787 33229 ft 446 kts 286°
2026-05-05 03:20 51.99499 -84.34346 33231 ft 446 kts 286°
2026-05-05 03:21 52.01463 -84.43900 33232 ft 447 kts 286°
2026-05-05 03:21 52.03420 -84.53469 33243 ft 447 kts 286°
2026-05-05 03:22 52.05364 -84.63021 33241 ft 448 kts 285°
2026-05-05 03:22 52.07311 -84.72634 33249 ft 448 kts 285°
2026-05-05 03:23 52.08834 -84.80191 33251 ft 448 kts 285°
2026-05-05 03:23 52.10771 -84.89838 33251 ft 448 kts 285°
2026-05-05 03:24 52.12697 -84.99477 33251 ft 448 kts 285°
2026-05-05 03:24 52.14588 -85.08989 33276 ft 448 kts 285°
2026-05-05 03:25 52.16392 -85.18109 33256 ft 448 kts 285°
2026-05-05 03:25 52.18267 -85.27631 33276 ft 447 kts 285°
2026-05-05 03:26 52.20150 -85.37240 33269 ft 447 kts 285°
2026-05-05 03:26 52.22004 -85.46755 33282 ft 447 kts 285°
2026-05-05 03:27 52.23874 -85.56392 33298 ft 447 kts 285°
2026-05-05 03:27 52.25654 -85.65948 33304 ft 447 kts 285°
2026-05-05 03:28 52.27565 -85.75520 33298 ft 447 kts 285°
2026-05-05 03:28 52.29423 -85.85216 33306 ft 447 kts 284°
2026-05-05 03:29 52.31192 -85.94925 33310 ft 447 kts 284°
2026-05-05 03:29 52.33046 -86.04625 33338 ft 447 kts 284°
2026-05-05 03:30 52.34889 -86.14266 33324 ft 447 kts 284°
2026-05-05 03:30 52.36722 -86.23996 33338 ft 447 kts 284°
2026-05-05 03:31 52.38531 -86.33697 33339 ft 447 kts 284°
2026-05-05 03:31 52.40329 -86.43405 33354 ft 447 kts 283°
2026-05-05 03:32 52.42151 -86.52975 33362 ft 448 kts 285°
2026-05-05 03:32 52.43886 -86.62699 33354 ft 447 kts 282°
2026-05-05 03:33 52.45648 -86.72356 33352 ft 447 kts 285°
2026-05-05 03:33 52.47432 -86.82089 33389 ft 447 kts 284°
2026-05-05 03:34 52.49135 -86.91837 33389 ft 447 kts 281°
2026-05-05 03:34 52.50793 -87.01536 33396 ft 447 kts 283°
2026-05-05 03:35 52.52609 -87.11261 33395 ft 448 kts 286°
2026-05-05 03:35 52.54420 -87.21073 33402 ft 449 kts 284°
2026-05-05 03:36 52.56103 -87.30820 33404 ft 450 kts 283°
2026-05-05 03:36 52.57795 -87.40483 33419 ft 451 kts 284°
2026-05-05 03:37 52.59524 -87.50364 33442 ft 452 kts 284°
2026-05-05 03:37 52.61246 -87.60297 33435 ft 453 kts 284°
2026-05-05 03:38 52.62925 -87.70221 33435 ft 453 kts 284°
2026-05-05 03:38 52.64622 -87.80053 33454 ft 453 kts 284°
2026-05-05 03:39 52.66360 -87.89968 33454 ft 453 kts 284°
2026-05-05 03:39 52.67987 -87.99892 33467 ft 453 kts 285°
2026-05-05 03:40 52.69696 -88.09827 33469 ft 453 kts 284°
2026-05-05 03:40 52.71374 -88.19775 33477 ft 453 kts 284°
2026-05-05 03:41 52.73035 -88.29727 33481 ft 453 kts 284°
2026-05-05 03:41 52.74695 -88.39718 33497 ft 453 kts 284°
2026-05-05 03:42 52.76319 -88.49562 33497 ft 453 kts 285°
2026-05-05 03:42 52.77951 -88.59518 33506 ft 453 kts 284°
2026-05-05 03:43 52.79553 -88.69368 33512 ft 453 kts 284°
2026-05-05 03:43 52.81177 -88.79374 33531 ft 453 kts 284°
2026-05-05 03:44 52.82787 -88.89364 33524 ft 453 kts 284°
2026-05-05 03:44 52.84365 -88.99216 33536 ft 453 kts 284°
2026-05-05 03:45 52.85877 -89.08710 33542 ft 453 kts 284°
2026-05-05 03:45 52.87394 -89.18283 33549 ft 453 kts 284°
2026-05-05 03:46 52.88911 -89.27914 33559 ft 453 kts 284°
2026-05-05 03:46 52.90422 -89.37565 33557 ft 453 kts 284°
2026-05-05 03:47 52.91985 -89.47606 33570 ft 453 kts 284°
2026-05-05 03:47 52.93544 -89.57675 33575 ft 453 kts 284°
2026-05-05 03:48 52.95093 -89.67745 33592 ft 452 kts 284°
2026-05-05 03:48 52.96640 -89.77862 33585 ft 452 kts 284°
2026-05-05 03:49 52.98184 -89.87996 33583 ft 452 kts 284°
2026-05-05 03:49 52.99670 -89.97971 33583 ft 452 kts 281°
2026-05-05 03:50 53.00076 -90.08187 33615 ft 451 kts 269°
2026-05-05 03:50 52.99933 -90.18584 33612 ft 451 kts 268°
2026-05-05 03:51 52.99791 -90.28939 33611 ft 452 kts 268°
2026-05-05 03:51 52.99679 -90.39342 33621 ft 452 kts 269°
2026-05-05 03:52 52.99579 -90.49635 33625 ft 452 kts 269°
2026-05-05 03:52 52.99474 -90.60041 33625 ft 453 kts 269°
2026-05-05 03:53 52.99358 -90.70503 33642 ft 453 kts 269°
2026-05-05 03:53 52.99234 -90.80864 33647 ft 453 kts 268°
2026-05-05 03:54 52.99098 -90.91335 33650 ft 454 kts 268°
2026-05-05 03:54 52.98956 -91.01610 33661 ft 454 kts 269°
2026-05-05 03:55 52.98803 -91.12062 33657 ft 455 kts 268°
2026-05-05 03:55 52.98643 -91.22362 33681 ft 455 kts 268°
2026-05-05 03:56 52.98472 -91.32746 33672 ft 455 kts 268°
2026-05-05 03:56 52.98294 -91.43027 33682 ft 454 kts 268°
2026-05-05 03:57 52.98108 -91.53326 33670 ft 454 kts 268°
2026-05-05 03:57 52.97911 -91.63681 33692 ft 454 kts 268°
2026-05-05 03:58 52.97705 -91.74047 33682 ft 454 kts 268°
2026-05-05 03:58 52.97492 -91.84290 33702 ft 453 kts 268°
2026-05-05 03:59 52.97272 -91.94478 33690 ft 453 kts 268°
2026-05-05 03:59 52.97045 -92.04603 33710 ft 453 kts 268°
2026-05-05 04:00 52.96807 -92.14784 33704 ft 453 kts 268°
2026-05-05 04:00 52.96557 -92.25100 33730 ft 453 kts 268°
2026-05-05 04:01 52.96297 -92.35464 33719 ft 454 kts 268°
2026-05-05 04:01 52.96030 -92.45791 33727 ft 454 kts 268°
2026-05-05 04:02 52.95753 -92.56212 33720 ft 454 kts 268°
2026-05-05 04:02 52.95467 -92.66561 33739 ft 454 kts 268°
2026-05-05 04:03 52.95172 -92.76917 33730 ft 453 kts 268°
2026-05-05 04:03 52.94870 -92.87046 33744 ft 453 kts 268°
2026-05-05 04:04 52.94557 -92.97445 33719 ft 452 kts 268°
2026-05-05 04:04 52.94240 -93.07685 33719 ft 452 kts 269°
2026-05-05 04:05 52.93913 -93.17928 33708 ft 451 kts 268°
2026-05-05 04:05 52.93576 -93.28132 33698 ft 450 kts 268°
2026-05-05 04:06 52.93231 -93.38293 33710 ft 450 kts 267°
2026-05-05 04:06 52.92881 -93.48336 33707 ft 449 kts 267°
2026-05-05 04:07 52.92520 -93.58547 33727 ft 448 kts 267°
2026-05-05 04:07 52.92153 -93.68736 33735 ft 448 kts 268°
2026-05-05 04:08 52.91776 -93.78896 33769 ft 448 kts 267°
2026-05-05 04:08 52.91388 -93.89064 33779 ft 447 kts 267°
2026-05-05 04:09 52.91057 -93.97579 33778 ft 447 kts 268°
2026-05-05 04:09 52.90652 -94.07828 33770 ft 447 kts 268°
2026-05-05 04:10 52.90242 -94.17932 33779 ft 446 kts 267°
2026-05-05 04:10 52.89816 -94.28173 33785 ft 446 kts 267°
2026-05-05 04:11 52.89389 -94.38311 33785 ft 446 kts 268°
2026-05-05 04:11 52.88953 -94.48452 33795 ft 446 kts 267°
2026-05-05 04:12 52.88507 -94.58622 33794 ft 447 kts 266°
2026-05-05 04:12 52.88049 -94.68867 33803 ft 447 kts 267°
2026-05-05 04:13 52.87587 -94.78994 33804 ft 447 kts 266°
2026-05-05 04:13 52.87111 -94.89204 33804 ft 447 kts 266°
2026-05-05 04:14 52.86628 -94.99374 33802 ft 448 kts 266°
2026-05-05 04:14 52.86133 -95.09601 33806 ft 448 kts 267°
2026-05-05 04:15 52.85634 -95.19771 33812 ft 448 kts 266°
2026-05-05 04:15 52.85124 -95.30011 33819 ft 448 kts 266°
2026-05-05 04:16 52.84607 -95.40183 33820 ft 448 kts 266°
2026-05-05 04:16 52.84086 -95.50288 33824 ft 448 kts 266°
2026-05-05 04:17 52.83549 -95.60462 33817 ft 447 kts 266°
2026-05-05 04:17 52.83004 -95.70628 33829 ft 447 kts 266°
2026-05-05 04:18 52.82447 -95.80884 33832 ft 447 kts 266°
2026-05-05 04:18 52.81883 -95.91098 33833 ft 447 kts 266°
2026-05-05 04:19 52.81313 -96.01263 33837 ft 446 kts 266°
2026-05-05 04:19 52.80735 -96.11428 33838 ft 446 kts 266°
2026-05-05 04:20 52.80158 -96.21410 33842 ft 446 kts 266°
2026-05-05 04:20 52.79564 -96.31530 33842 ft 445 kts 265°
2026-05-05 04:21 52.78970 -96.41509 33848 ft 445 kts 265°
2026-05-05 04:21 52.78362 -96.51586 33854 ft 445 kts 265°
2026-05-05 04:22 52.77742 -96.61731 33844 ft 445 kts 266°
2026-05-05 04:22 52.77118 -96.71768 33856 ft 445 kts 265°
2026-05-05 04:23 52.76481 -96.81887 33854 ft 445 kts 265°
2026-05-05 04:23 52.75836 -96.92001 33860 ft 445 kts 265°
2026-05-05 04:24 52.75179 -97.02161 33862 ft 445 kts 265°
2026-05-05 04:25 52.74197 -97.17114 33863 ft 445 kts 265°
2026-05-05 04:25 52.73520 -97.27255 33880 ft 445 kts 265°
2026-05-05 04:26 52.72840 -97.37327 33877 ft 445 kts 265°
2026-05-05 04:26 52.72154 -97.47370 33891 ft 445 kts 265°
2026-05-05 04:27 52.71467 -97.57339 33878 ft 445 kts 265°
2026-05-05 04:27 52.70748 -97.67399 33892 ft 446 kts 265°
2026-05-05 04:28 52.69877 -97.77477 33892 ft 446 kts 264°
2026-05-05 04:28 52.68959 -97.87594 33898 ft 446 kts 264°
2026-05-05 04:29 52.68053 -97.97692 33901 ft 446 kts 264°
2026-05-05 04:29 52.67151 -98.07767 33895 ft 446 kts 264°
2026-05-05 04:30 52.66245 -98.17842 33906 ft 446 kts 264°
2026-05-05 04:30 52.65331 -98.27919 33915 ft 446 kts 264°
2026-05-05 04:31 52.64405 -98.38028 33915 ft 446 kts 264°
2026-05-05 04:31 52.63473 -98.48101 33921 ft 446 kts 264°
2026-05-05 04:32 52.62535 -98.58150 33909 ft 446 kts 264°
2026-05-05 04:32 52.61584 -98.68239 33922 ft 446 kts 264°
2026-05-05 04:33 52.60632 -98.78232 33926 ft 445 kts 264°
2026-05-05 04:33 52.59666 -98.88297 33931 ft 445 kts 263°
2026-05-05 04:34 52.58695 -98.98311 33931 ft 445 kts 263°
2026-05-05 04:34 52.57713 -99.08353 33928 ft 444 kts 264°
2026-05-05 04:35 52.56742 -99.18192 33934 ft 444 kts 263°
2026-05-05 04:35 52.55772 -99.27928 33949 ft 444 kts 263°
2026-05-05 04:36 52.54774 -99.37864 33944 ft 444 kts 263°
2026-05-05 04:36 52.53770 -99.47776 33952 ft 443 kts 263°
2026-05-05 04:37 52.52763 -99.57628 33952 ft 443 kts 263°
2026-05-05 04:37 52.51744 -99.67516 33962 ft 443 kts 263°
2026-05-05 04:38 52.50721 -99.77351 33959 ft 443 kts 263°
2026-05-05 04:38 52.49674 -99.87339 33958 ft 443 kts 263°
2026-05-05 04:39 52.48620 -99.97306 33960 ft 443 kts 263°
2026-05-05 04:39 52.47562 -100.07231 33973 ft 443 kts 263°
2026-05-05 04:40 52.46496 -100.17148 33965 ft 443 kts 263°
2026-05-05 04:40 52.45429 -100.26987 33973 ft 443 kts 263°
2026-05-05 04:41 52.44346 -100.36898 33975 ft 443 kts 263°
2026-05-05 04:41 52.43255 -100.46803 33981 ft 443 kts 262°
2026-05-05 04:42 52.42159 -100.56672 33977 ft 443 kts 262°
2026-05-05 04:42 52.41048 -100.66592 33987 ft 443 kts 262°
2026-05-05 04:43 52.39933 -100.76472 33982 ft 443 kts 262°
2026-05-05 04:43 52.38818 -100.86280 33995 ft 444 kts 262°
2026-05-05 04:44 52.37696 -100.96065 33992 ft 444 kts 262°
2026-05-05 04:44 52.36563 -101.05875 33987 ft 443 kts 262°
2026-05-05 04:45 52.35420 -101.15696 33992 ft 443 kts 262°
2026-05-05 04:45 52.34294 -101.25296 33994 ft 443 kts 262°
2026-05-05 04:46 52.33149 -101.34992 33994 ft 443 kts 262°
2026-05-05 04:46 52.31995 -101.44679 33998 ft 443 kts 262°
2026-05-05 04:47 52.30846 -101.54263 33990 ft 443 kts 262°
2026-05-05 04:47 52.29731 -101.63497 34008 ft 443 kts 262°
2026-05-05 04:48 52.28543 -101.73271 34002 ft 443 kts 262°
2026-05-05 04:48 52.27343 -101.83060 33997 ft 443 kts 262°
2026-05-05 04:49 52.26131 -101.92883 33995 ft 443 kts 262°
2026-05-05 04:49 52.24907 -102.02732 34004 ft 443 kts 262°
2026-05-05 04:50 52.23681 -102.12518 34000 ft 442 kts 262°
2026-05-05 04:50 52.22447 -102.22306 34006 ft 442 kts 262°
2026-05-05 04:51 52.21199 -102.32136 34012 ft 442 kts 262°
2026-05-05 04:51 52.19957 -102.41846 33987 ft 442 kts 262°
2026-05-05 04:52 52.18699 -102.51614 34004 ft 441 kts 262°
2026-05-05 04:52 52.17440 -102.61319 34009 ft 440 kts 262°
2026-05-05 04:53 52.16172 -102.71028 34013 ft 440 kts 262°
2026-05-05 04:53 52.14907 -102.80648 34017 ft 439 kts 262°
2026-05-05 04:54 52.13637 -102.90241 34000 ft 439 kts 262°
2026-05-05 04:54 52.12351 -102.99894 34014 ft 438 kts 261°
2026-05-05 04:55 52.11110 -103.09139 34002 ft 430 kts 261°
2026-05-05 04:55 52.10502 -103.13627 34002 ft 417 kts 261°
2026-05-05 04:55 52.10027 -103.17117 33789 ft 412 kts 262°
2026-05-05 04:55 52.09421 -103.21576 33548 ft 404 kts 262°
2026-05-05 04:56 52.08817 -103.26017 33158 ft 401 kts 262°
2026-05-05 04:56 52.08218 -103.30420 32839 ft 397 kts 262°
2026-05-05 04:56 52.07633 -103.34712 32470 ft 394 kts 262°
2026-05-05 04:56 52.07053 -103.38950 32110 ft 391 kts 262°
2026-05-05 04:57 52.06469 -103.43198 31784 ft 388 kts 262°
2026-05-05 04:57 52.06073 -103.46075 31549 ft 386 kts 262°
2026-05-05 04:57 52.05300 -103.51672 31100 ft 383 kts 262°
2026-05-05 04:57 52.04905 -103.54530 30873 ft 381 kts 262°
2026-05-05 04:58 52.04326 -103.58692 30535 ft 379 kts 262°
2026-05-05 04:58 52.03765 -103.62722 30213 ft 377 kts 262°
2026-05-05 04:58 52.03191 -103.66834 29835 ft 374 kts 262°
2026-05-05 04:58 52.02628 -103.70852 29460 ft 371 kts 262°
2026-05-05 04:59 52.02059 -103.74897 29130 ft 367 kts 262°
2026-05-05 04:59 52.01492 -103.78920 28770 ft 364 kts 262°
2026-05-05 04:59 52.00929 -103.82903 28402 ft 360 kts 262°
2026-05-05 04:59 52.00370 -103.86851 28094 ft 356 kts 262°
2026-05-05 05:00 51.99818 -103.90734 27747 ft 353 kts 262°
2026-05-05 05:00 51.99267 -103.94606 27434 ft 349 kts 262°
2026-05-05 05:00 51.98721 -103.98436 27090 ft 347 kts 262°
2026-05-05 05:00 51.98179 -104.02227 26766 ft 344 kts 262°
2026-05-05 05:01 51.97639 -104.05994 26442 ft 342 kts 262°
2026-05-05 05:01 51.97102 -104.09734 26117 ft 339 kts 262°
2026-05-05 05:01 51.96573 -104.13407 25803 ft 337 kts 262°
2026-05-05 05:01 51.96045 -104.17067 25487 ft 335 kts 262°
2026-05-05 05:02 51.95517 -104.20711 25183 ft 333 kts 262°
2026-05-05 05:02 51.94991 -104.24341 24872 ft 331 kts 262°
2026-05-05 05:02 51.94471 -104.27917 24565 ft 329 kts 262°
2026-05-05 05:02 51.93947 -104.31514 24255 ft 327 kts 262°
2026-05-05 05:03 51.93426 -104.35076 23949 ft 326 kts 262°
2026-05-05 05:03 51.92903 -104.38651 23634 ft 324 kts 262°
2026-05-05 05:03 51.92392 -104.42132 23287 ft 323 kts 262°
2026-05-05 05:03 51.91874 -104.45657 22947 ft 321 kts 262°
2026-05-05 05:04 51.91358 -104.49158 22645 ft 318 kts 262°
2026-05-05 05:04 51.90844 -104.52635 22329 ft 316 kts 262°
2026-05-05 05:04 51.90335 -104.56067 22043 ft 313 kts 262°
2026-05-05 05:04 51.89826 -104.59499 21733 ft 313 kts 262°
2026-05-05 05:05 51.89319 -104.62918 21435 ft 314 kts 262°
2026-05-05 05:05 51.88807 -104.66369 21146 ft 321 kts 262°
2026-05-05 05:05 51.88279 -104.69927 20837 ft 327 kts 261°
2026-05-05 05:05 51.87746 -104.73490 20523 ft 327 kts 261°
2026-05-05 05:06 51.87221 -104.76984 20176 ft 325 kts 261°
2026-05-05 05:06 51.86736 -104.80200 19900 ft 323 kts 261°
2026-05-05 05:06 51.86328 -104.82904 19670 ft 321 kts 261°
2026-05-05 05:06 51.85888 -104.85815 19417 ft 319 kts 261°
2026-05-05 05:07 51.85355 -104.89341 19113 ft 317 kts 261°
2026-05-05 05:07 51.84840 -104.92744 18815 ft 316 kts 261°
2026-05-05 05:07 51.84318 -104.96189 18519 ft 314 kts 261°
2026-05-05 05:07 51.83798 -104.99620 18197 ft 313 kts 261°
2026-05-05 05:08 51.83280 -105.03031 17863 ft 311 kts 261°
2026-05-05 05:08 51.82765 -105.06415 17569 ft 308 kts 261°
2026-05-05 05:08 51.82256 -105.09738 17270 ft 306 kts 261°
2026-05-05 05:08 51.81746 -105.13048 16986 ft 303 kts 261°
2026-05-05 05:09 51.81282 -105.16353 16683 ft 298 kts 270°
2026-05-05 05:09 51.81499 -105.19563 16404 ft 284 kts 290°
2026-05-05 05:09 51.82049 -105.22601 16119 ft 281 kts 291°
2026-05-05 05:09 51.82620 -105.25586 15805 ft 279 kts 291°
2026-05-05 05:10 51.83193 -105.28558 15535 ft 277 kts 291°
2026-05-05 05:10 51.83753 -105.31473 15261 ft 275 kts 291°
2026-05-05 05:10 51.84299 -105.34335 15003 ft 273 kts 291°
2026-05-05 05:10 51.84849 -105.37230 14734 ft 272 kts 291°
2026-05-05 05:11 51.85399 -105.40142 14446 ft 271 kts 291°
2026-05-05 05:11 51.85947 -105.43051 14164 ft 270 kts 291°
2026-05-05 05:11 51.86491 -105.45949 13887 ft 269 kts 291°
2026-05-05 05:11 51.87029 -105.48824 13585 ft 268 kts 291°
2026-05-05 05:12 51.87527 -105.51490 13327 ft 266 kts 291°
2026-05-05 05:12 51.88055 -105.54325 13049 ft 264 kts 291°
2026-05-05 05:12 51.88539 -105.56926 12817 ft 261 kts 291°
2026-05-05 05:12 51.89061 -105.59736 12544 ft 259 kts 291°
2026-05-05 05:13 51.89564 -105.62446 12291 ft 257 kts 291°
2026-05-05 05:13 51.90075 -105.65203 12029 ft 255 kts 291°
2026-05-05 05:13 51.90584 -105.67954 11776 ft 253 kts 291°
2026-05-05 05:13 51.91083 -105.70656 11510 ft 251 kts 291°
2026-05-05 05:14 51.91579 -105.73342 11258 ft 250 kts 291°
2026-05-05 05:14 51.92077 -105.76040 11024 ft 254 kts 291°
2026-05-05 05:14 51.92587 -105.78798 10766 ft 259 kts 291°
2026-05-05 05:14 51.93092 -105.81537 10488 ft 264 kts 290°
2026-05-05 05:15 51.93615 -105.84385 10223 ft 265 kts 290°
2026-05-05 05:15 51.94134 -105.87221 10081 ft 258 kts 290°
2026-05-05 05:15 51.94638 -105.89986 9821 ft 256 kts 290°
2026-05-05 05:15 51.95138 -105.92729 9583 ft 253 kts 290°
2026-05-05 05:16 51.95631 -105.95446 9304 ft 251 kts 290°
2026-05-05 05:16 51.96137 -105.98131 9036 ft 247 kts 296°
2026-05-05 05:16 51.96958 -106.00472 8814 ft 240 kts 308°
2026-05-05 05:16 51.97856 -106.02571 8565 ft 239 kts 308°
2026-05-05 05:17 51.98801 -106.04780 8323 ft 237 kts 308°
2026-05-05 05:17 51.99724 -106.06946 8081 ft 235 kts 308°
2026-05-05 05:17 52.00645 -106.09121 7844 ft 233 kts 308°
2026-05-05 05:17 52.01559 -106.11288 7602 ft 231 kts 308°
2026-05-05 05:18 52.02462 -106.13435 7358 ft 230 kts 308°
2026-05-05 05:18 52.03355 -106.15562 7126 ft 228 kts 308°
2026-05-05 05:18 52.04248 -106.17694 6904 ft 231 kts 308°
2026-05-05 05:18 52.05162 -106.19877 6669 ft 238 kts 308°
2026-05-05 05:19 52.06030 -106.21955 6475 ft 242 kts 308°
2026-05-05 05:19 52.06965 -106.24198 6346 ft 238 kts 308°
2026-05-05 05:19 52.07874 -106.26386 6221 ft 231 kts 308°
2026-05-05 05:19 52.08759 -106.28517 6108 ft 223 kts 308°
2026-05-05 05:20 52.09599 -106.30540 6012 ft 215 kts 308°
2026-05-05 05:20 52.10415 -106.32505 5842 ft 208 kts 309°
2026-05-05 05:20 52.11205 -106.34410 5604 ft 201 kts 309°
2026-05-05 05:20 52.11976 -106.36275 5377 ft 194 kts 309°
2026-05-05 05:21 52.12700 -106.38031 5192 ft 188 kts 309°
2026-05-05 05:21 52.13407 -106.39748 4995 ft 180 kts 309°
2026-05-05 05:21 52.14079 -106.41392 4785 ft 174 kts 307°
2026-05-05 05:21 52.14433 -106.43239 4575 ft 177 kts 286°
2026-05-05 05:22 52.14663 -106.45195 4402 ft 176 kts 289°
2026-05-05 05:22 52.14910 -106.47150 4225 ft 176 kts 289°
2026-05-05 05:22 52.15142 -106.49061 4033 ft 171 kts 289°
2026-05-05 05:22 52.15361 -106.50909 3876 ft 168 kts 289°
2026-05-05 05:23 52.15572 -106.52703 3632 ft 158 kts 289°
2026-05-05 05:23 52.15769 -106.54375 3478 ft 146 kts 290°
2026-05-05 05:23 52.15960 -106.55977 3235 ft 143 kts 290°
2026-05-05 05:23 52.16135 -106.57556 3134 ft 143 kts 287°
2026-05-05 05:24 52.16284 -106.59151 3074 ft 143 kts 289°
2026-05-05 05:24 52.16476 -106.60703 2939 ft 143 kts 290°
2026-05-05 05:24 52.16656 -106.62271 2741 ft 143 kts 288°
2026-05-05 05:24 52.16871 -106.63829 2432 ft 142 kts 289°
2026-05-05 05:25 52.17078 -106.65392 2165 ft 138 kts 282°
2026-05-05 05:25 52.17254 -106.66892 1912 ft 139 kts 281°
2026-05-05 05:25 52.17421 -106.68258 1697 ft 135 kts 281°
2026-05-05 05:25 52.17562 -106.69434 1652 ft 110 kts 285°
2026-05-05 05:26 52.17669 -106.70248 1646 ft 49 kts 282°
2026-05-05 05:26 52.17684 -106.70392 1648 ft 2 kts 271°
2026-05-05 05:26 52.17673 -106.70425 1648 ft 5 kts 213°
2026-05-05 05:26 52.17631 -106.70414 1647 ft 10 kts 165°
2026-05-05 05:27 52.17543 -106.70366 1647 ft 16 kts 161°
2026-05-05 05:27 52.17437 -106.70308 1649 ft 16 kts 161°
2026-05-05 05:27 52.17318 -106.70066 1651 ft 14 kts 103°
2026-05-05 05:28 52.17297 -106.69904 1649 ft 15 kts 101°
2026-05-05 05:28 52.17278 -106.69733 1649 ft 15 kts 99°
2026-05-05 05:28 52.17258 -106.69559 1647 ft 17 kts 101°
2026-05-05 05:28 52.17235 -106.69364 1647 ft 18 kts 101°
2026-05-05 05:29 52.17212 -106.69165 1647 ft 17 kts 101°
2026-05-05 05:29 52.17163 -106.69113 1647 ft 11 kts 216°
2026-05-05 05:29 52.17115 -106.69214 1648 ft 12 kts 245°
2026-05-05 05:29 52.17088 -106.69294 1647 ft 6 kts 206°
2026-05-05 05:30 52.17049 -106.69279 1648 ft 6 kts 161°
2026-05-05 05:30 52.17030 -106.69271 1648 ft 1 kts 165°
2026-05-05 05:30 52.17029 -106.69271 1648 ft 0 kts 165°